Stündliche Wetter Warzymice

Heute, 23 Oktober, Freitag

Zeit Temperatur Niederschläge Wind Luftdruck Luftfeuchtigkeit
00:00 +14°C° 0.2 mm 4 m/S 755 mmHg 87%
01:00 +14°C° 0 mm 4 m/S 755 mmHg 90%
02:00 +13°C° 0 mm 4 m/S 755 mmHg 92%
03:00 +13°C° 0 mm 4 m/S 755 mmHg 93%
04:00 +12°C° 0 mm 3 m/S 754 mmHg 95%
05:00 +12°C° 0 mm 3 m/S 755 mmHg 95%
06:00 +12°C° 0 mm 3 m/S 755 mmHg 96%
07:00 +11°C° 0 mm 3 m/S 755 mmHg 96%
08:00 +12°C° 0 mm 4 m/S 755 mmHg 90%
09:00 +13°C° 0 mm 4 m/S 755 mmHg 84%
10:00 +14°C° 0 mm 4 m/S 755 mmHg 79%
11:00 +15°C° 0 mm 4 m/S 755 mmHg 75%
12:00 +17°C° 0 mm 3 m/S 755 mmHg 71%
13:00 +17°C° 0 mm 3 m/S 755 mmHg 67%
14:00 +12°C° 0 mm 3 m/S 755 mmHg 89%
15:00 +14°C° 0 mm 2 m/S 754 mmHg 83%
16:00 +15°C° 0 mm 1 m/S 754 mmHg 77%
17:00 +15°C° 0 mm 1 m/S 754 mmHg 80%
18:00 +14°C° 0 mm 1 m/S 754 mmHg 84%
19:00 +14°C° 0 mm 1 m/S 754 mmHg 87%
20:00 +14°C° 0.1 mm 1 m/S 754 mmHg 89%
21:00 +13°C° 0.1 mm 1 m/S 754 mmHg 91%
22:00 +13°C° 0.1 mm 1 m/S 755 mmHg 93%
23:00 +13°C° 0 mm 2 m/S 755 mmHg 94%

Morgen, 24 Oktober, Samstag

Zeit Temperatur Niederschläge Wind Luftdruck Luftfeuchtigkeit
00:00 +12°C° 0 mm 2 m/S 755 mmHg 95%
01:00 +12°C° 0 mm 2 m/S 755 mmHg 96%
02:00 +12°C° 0 mm 2 m/S 755 mmHg 96%
03:00 +11°C° 0 mm 3 m/S 755 mmHg 96%
04:00 +10°C° 0 mm 3 m/S 755 mmHg 97%
05:00 +10°C° 0 mm 3 m/S 755 mmHg 96%
06:00 +10°C° 0 mm 4 m/S 755 mmHg 95%
07:00 +10°C° 0 mm 4 m/S 755 mmHg 95%
08:00 +11°C° 0 mm 4 m/S 756 mmHg 90%
09:00 +12°C° 0 mm 5 m/S 756 mmHg 86%
10:00 +11°C° 0 mm 6 m/S 756 mmHg 82%
11:00 +13°C° 0 mm 5 m/S 756 mmHg 79%
12:00 +13°C° 0 mm 5 m/S 757 mmHg 76%
13:00 +14°C° 0 mm 5 m/S 757 mmHg 73%
14:00 +14°C° 0 mm 4 m/S 757 mmHg 74%
15:00 +14°C° 0 mm 4 m/S 757 mmHg 75%
16:00 +14°C° 0 mm 3 m/S 757 mmHg 76%
17:00 +13°C° 0 mm 3 m/S 757 mmHg 79%
18:00 +12°C° 0 mm 3 m/S 757 mmHg 82%
19:00 +11°C° 0 mm 3 m/S 758 mmHg 85%
20:00 +12°C° 0 mm 3 m/S 758 mmHg 84%
21:00 +12°C° 0 mm 3 m/S 758 mmHg 83%
22:00 +12°C° 0 mm 4 m/S 758 mmHg 82%
23:00 +12°C° 0 mm 4 m/S 758 mmHg 83%

übermorgen, 25 Oktober, Sonntag

Zeit Temperatur Niederschläge Wind Luftdruck Luftfeuchtigkeit
00:00 +12°C° 0 mm 4 m/S 758 mmHg 85%
01:00 +11°C° 0 mm 3 m/S 757 mmHg 86%
02:00 +11°C° 0 mm 4 m/S 757 mmHg 88%
03:00 +10°C° 0 mm 4 m/S 757 mmHg 90%
04:00 +8°C° 0 mm 4 m/S 757 mmHg 92%
05:00 +8°C° 0 mm 4 m/S 757 mmHg 92%
06:00 +8°C° 0 mm 4 m/S 757 mmHg 93%
07:00 +8°C° 0 mm 4 m/S 757 mmHg 93%
08:00 +10°C° 0 mm 4 m/S 757 mmHg 87%
09:00 +10°C° 0 mm 5 m/S 757 mmHg 82%
10:00 +12°C° 0 mm 5 m/S 757 mmHg 76%
11:00 +14°C° 0 mm 5 m/S 756 mmHg 72%
12:00 +15°C° 0 mm 6 m/S 756 mmHg 68%
13:00 +16°C° 0 mm 6 m/S 755 mmHg 65%
14:00 +16°C° 0 mm 5 m/S 755 mmHg 67%
15:00 +15°C° 0 mm 5 m/S 755 mmHg 69%
16:00 +15°C° 0 mm 4 m/S 754 mmHg 71%
17:00 +14°C° 0 mm 4 m/S 754 mmHg 73%
18:00 +13°C° 0 mm 4 m/S 754 mmHg 75%
19:00 +13°C° 0 mm 5 m/S 754 mmHg 76%
20:00 +12°C° 0 mm 5 m/S 754 mmHg 77%
21:00 +12°C° 0 mm 5 m/S 754 mmHg 78%
22:00 +10°C° 0 mm 5 m/S 754 mmHg 78%
23:00 +11°C° 0 mm 4 m/S 753 mmHg 80%

, 26 Oktober, Montag

Zeit Temperatur Niederschläge Wind Luftdruck Luftfeuchtigkeit
00:00 +11°C° 0 mm 4 m/S 753 mmHg 82%
01:00 +10°C° 0 mm 4 m/S 753 mmHg 84%
02:00 +10°C° 0 mm 4 m/S 753 mmHg 87%
03:00 +9°C° 0 mm 3 m/S 752 mmHg 89%
04:00 +9°C° 0 mm 3 m/S 752 mmHg 92%
05:00 +9°C° 0 mm 3 m/S 752 mmHg 93%
06:00 +8°C° 0 mm 3 m/S 752 mmHg 93%
07:00 +8°C° 0 mm 3 m/S 752 mmHg 94%
08:00 +10°C° 0 mm 3 m/S 752 mmHg 88%
09:00 +11°C° 0 mm 3 m/S 751 mmHg 82%
10:00 +13°C° 0 mm 3 m/S 751 mmHg 76%
11:00 +14°C° 0 mm 3 m/S 751 mmHg 73%
12:00 +16°C° 0 mm 3 m/S 750 mmHg 70%
13:00 +17°C° 0 mm 3 m/S 750 mmHg 67%
14:00 +16°C° 0 mm 3 m/S 750 mmHg 70%
15:00 +15°C° 0 mm 2 m/S 749 mmHg 74%
16:00 +15°C° 0 mm 2 m/S 749 mmHg 77%
17:00 +14°C° 0.1 mm 2 m/S 749 mmHg 78%
18:00 +14°C° 0.1 mm 2 m/S 749 mmHg 80%
19:00 +14°C° 0.1 mm 2 m/S 749 mmHg 82%
20:00 +14°C° 0.2 mm 2 m/S 749 mmHg 84%
21:00 +13°C° 0.2 mm 2 m/S 749 mmHg 87%
22:00 +13°C° 0.2 mm 2 m/S 749 mmHg 89%
23:00 +13°C° 0 mm 2 m/S 749 mmHg 89%

26 Oktober, Montag

Zeit Temperatur Niederschläge Wind Luftdruck Luftfeuchtigkeit
00:00 +11°C° 0 mm 4 m/S 753 mmHg 82%
01:00 +10°C° 0 mm 4 m/S 753 mmHg 84%
02:00 +10°C° 0 mm 4 m/S 753 mmHg 87%
03:00 +9°C° 0 mm 3 m/S 752 mmHg 89%
04:00 +9°C° 0 mm 3 m/S 752 mmHg 92%
05:00 +9°C° 0 mm 3 m/S 752 mmHg 93%
06:00 +8°C° 0 mm 3 m/S 752 mmHg 93%
07:00 +8°C° 0 mm 3 m/S 752 mmHg 94%
08:00 +10°C° 0 mm 3 m/S 752 mmHg 88%
09:00 +11°C° 0 mm 3 m/S 751 mmHg 82%
10:00 +13°C° 0 mm 3 m/S 751 mmHg 76%
11:00 +14°C° 0 mm 3 m/S 751 mmHg 73%
12:00 +16°C° 0 mm 3 m/S 750 mmHg 70%
13:00 +17°C° 0 mm 3 m/S 750 mmHg 67%
14:00 +16°C° 0 mm 3 m/S 750 mmHg 70%
15:00 +15°C° 0 mm 2 m/S 749 mmHg 74%
16:00 +15°C° 0 mm 2 m/S 749 mmHg 77%
17:00 +14°C° 0.1 mm 2 m/S 749 mmHg 78%
18:00 +14°C° 0.1 mm 2 m/S 749 mmHg 80%
19:00 +14°C° 0.1 mm 2 m/S 749 mmHg 82%
20:00 +14°C° 0.2 mm 2 m/S 749 mmHg 84%
21:00 +13°C° 0.2 mm 2 m/S 749 mmHg 87%
22:00 +13°C° 0.2 mm 2 m/S 749 mmHg 89%
23:00 +13°C° 0 mm 2 m/S 749 mmHg 89%

27 Oktober, Dienstag

Zeit Temperatur Niederschläge Wind Luftdruck Luftfeuchtigkeit
00:00 +13°C° 0 mm 2 m/S 749 mmHg 90%
01:00 +12°C° 0 mm 2 m/S 749 mmHg 90%
02:00 +12°C° 0 mm 1 m/S 749 mmHg 90%
03:00 +12°C° 0 mm 1 m/S 749 mmHg 91%
04:00 +12°C° 0 mm 1 m/S 749 mmHg 91%
05:00 +12°C° 0 mm 1 m/S 749 mmHg 92%
06:00 +12°C° 0 mm 1 m/S 750 mmHg 92%
07:00 +12°C° 0 mm 1 m/S 750 mmHg 92%
08:00 +13°C° 0 mm 1 m/S 751 mmHg 89%
09:00 +13°C° 0 mm 1 m/S 751 mmHg 85%
10:00 +14°C° 0 mm 1 m/S 751 mmHg 82%
11:00 +15°C° 0 mm 1 m/S 752 mmHg 80%
12:00 +15°C° 0 mm 1 m/S 752 mmHg 78%
13:00 +16°C° 0 mm 1 m/S 753 mmHg 76%
14:00 +15°C° 0.2 mm 1 m/S 753 mmHg 79%
15:00 +15°C° 0.2 mm 2 m/S 753 mmHg 82%
16:00 +14°C° 0.2 mm 2 m/S 753 mmHg 85%
17:00 +14°C° 0.1 mm 2 m/S 753 mmHg 87%
18:00 +13°C° 0.1 mm 2 m/S 754 mmHg 89%
19:00 +13°C° 0.1 mm 2 m/S 754 mmHg 91%
20:00 +12°C° 0 mm 2 m/S 754 mmHg 92%
21:00 +12°C° 0 mm 2 m/S 755 mmHg 92%
22:00 +12°C° 0 mm 2 m/S 755 mmHg 93%
23:00 +12°C° 0.1 mm 2 m/S 755 mmHg 93%

28 Oktober, Mittwoch

Zeit Temperatur Niederschläge Wind Luftdruck Luftfeuchtigkeit
00:00 +12°C° 0.1 mm 2 m/S 755 mmHg 93%
01:00 +12°C° 0.1 mm 2 m/S 755 mmHg 93%
02:00 +10°C° 0.8 mm 2 m/S 755 mmHg 93%
03:00 +10°C° 0.8 mm 2 m/S 755 mmHg 94%
04:00 +10°C° 0.8 mm 2 m/S 755 mmHg 94%
05:00 +10°C° 1.4 mm 3 m/S 755 mmHg 95%
06:00 +10°C° 1.4 mm 3 m/S 755 mmHg 95%
07:00 +10°C° 1.4 mm 4 m/S 755 mmHg 95%
08:00 +10°C° 1.2 mm 4 m/S 756 mmHg 93%
09:00 +10°C° 1.2 mm 4 m/S 756 mmHg 91%
10:00 +10°C° 1.2 mm 3 m/S 756 mmHg 89%
11:00 +11°C° 0 mm 4 m/S 756 mmHg 82%
12:00 +11°C° 0 mm 4 m/S 756 mmHg 75%
13:00 +12°C° 0 mm 5 m/S 756 mmHg 68%
14:00 +10°C° 0 mm 5 m/S 757 mmHg 70%
15:00 +11°C° 0 mm 4 m/S 757 mmHg 72%
16:00 +10°C° 0 mm 4 m/S 757 mmHg 75%
17:00 +8°C° 0 mm 4 m/S 757 mmHg 77%
18:00 +8°C° 0 mm 4 m/S 757 mmHg 80%
19:00 +7°C° 0 mm 4 m/S 757 mmHg 83%
20:00 +7°C° 0 mm 4 m/S 757 mmHg 84%
21:00 +8°C° 0 mm 3 m/S 757 mmHg 85%
22:00 +8°C° 0 mm 3 m/S 757 mmHg 86%
23:00 +8°C° 0 mm 3 m/S 758 mmHg 87%
Mehr zeigen

Wir brauchen deine Erlaubnis

Meteoprog und unser Service Anbieter werden persönliche Daten aufbewahren, so wie Cookies, Geräte Bezeichnung oder ähnliche Technologien von deinem Gerät und Prozess, so wie Persönliche Daten Inhalte und Werbungen, genauso wie social Media und den Verkehr zu analysieren.

  • Aufbewahrung und/oder Zugang zu deiner Geräte Informationen.

    Cookies, Geräte Bezeichnung oder andere Informationen, können aufbewahrt oder Zugang zu deinem Gerät erhalten, für den Grund, der oben angegeben wird.

  • Personalisierte Werbung und Inhalte, Messungen, Einblick in das Publikum und Produkt Entwicklung.

    Werbungen und Inhalte können personalisiert werden, basierend auf ein Profil. Mehr Daten können besser personalisierte Werbungen und Inhalte hinzufügen. Werbung und Inhalte können gezeigt und gemessen werden. Einblicke über das Publikum, welche die Werbung gesehen haben und den Inhalt, können abgeleitet werden. So wie Daten können genutzt werden, um es zu verbessern oder die Benutzer Erfahrung zu verbessern das System und die Software.

Wenn du “Ich stimme zu” klickst, erlaubst du uns, die Cookies zu benutzen die Geräte Bezeichnung, den Web oder ähnliche Technologien zu benutzen. Deine Settings, können in deinem Gerät bei deinem Browser geändert werden.

Für den bestimmten Zweck, berechtigten Interessen beruhen darauf, mehr als auf den Inhalt. Du kannst mehr darüber in unseren Privaten und Cookie Politik lesen.